User: anonymous   Login
Location: Vallejo Observatory
(38.1221°N, 122.2109°W)
Time: 16:42:21
(UTC-08:00)
Language:

MOS 1 Rocket - Orbit

View from above orbital plane
View from above orbital plane
View from above satellite
View from above satellite

Ground track
Ground track

The orbit data is extracted from the following two-line orbital elements,

1 17528U 87018B   17350.84637331  .00000083  00000-0  27149-4 0  9996
2 17528  97.4747 287.3929 0153598  85.5080 335.8990 14.50823661626366
Epoch (UTC): 16 December 2017 20:18:46
Eccentricity: 0.0153598
inclination: 97.4747°
perigee height: 614 km
apogee height: 832 km
right ascension of ascending node: 287.3929°
argument of perigee: 85.5080°
revolutions per day: 14.50823661
mean anomaly at epoch: 335.8990°
orbit number at epoch: 62636

The dashed part of the orbit path shows where the satellite is in the earth's shadow,  

DLR